User: anonymous   Login
Location: Unspecified
(0.0000°N, 0.0000°E)
Time: 19:53:22
(UTC+00:00)
Language:

Tsikada - Orbit

View from above orbital plane
View from above orbital plane
View from above satellite
View from above satellite

Ground track
Ground track

The orbit data is extracted from the following two-line orbital elements,

1 23463U 95002A   17268.95199406 +.00000038 +00000-0 +25538-4 0  9999
2 23463 082.9291 211.5931 0038791 350.4060 074.8277 13.72475635135376
Epoch (UTC): 25 September 2017 22:50:52
Eccentricity: 0.0038791
inclination: 82.9291°
perigee height: 962 km
apogee height: 1019 km
right ascension of ascending node: 211.5931°
argument of perigee: 350.4060°
revolutions per day: 13.72475635
mean anomaly at epoch: 74.8277°
orbit number at epoch: 13537

The dashed part of the orbit path shows where the satellite is in the earth's shadow,  

DLR